Back to catalog

COSMOS 931

AliveMilitaryHEO
NORAD 10150·PAYLOAD·🇷🇺 Russia

Launched Jul 20, 1977 from Plesetsk Cosmodrome

Loading…

Next Passes (next 24 hours)

TLE

FreshSource: Space-Track

Epoch: Sep 12, 2026, 22:21 UTC

1 10150U 77068A   26255.93172258 -.00000489  00000-0  00000+0 0  9993
2 10150  71.0908  51.7357 5313450 320.1625  10.8584  2.00772784360521

Track COSMOS 931 in real time with AllMySat

Download on the App Store